YAOGAN 9C

Satellite information

Favourite Embed

Satellite Type and Status

PAYLOADIN ORBIT

Key statistics

Satellite YAOGAN 9C at a glance.

Uptime

5763

Days in orbit

Revolutions

≈ 13.5

Per day

Orbit

LEO

Low Earth Orbit

Inclination

63.4

Latest

Satellite identification and parameters

Extended collection of information and parameters for YAOGAN 9C.

Object identification

Identified? True

Debris? False

Object name: YAOGAN 9C

International designator: 2010-009C

Object number (NORAD): 36415

Object ID (CCSDS): 36415

Country: PEOPLES REPUBLIC OF CHINA (PRC)

Current information (Y/N): Y

RCS size: LARGE

Orbital parameters

Period: 107.011 minutes

Inclination: 63.367 deg

SMA: 7466.403 km

Apoapsis: 1478.919 km

Periapsis: 697.617 km

RAAN: 118.274 deg

Eccentricy: 0.05232113

Argument of periapsis: 19.8048 deg

Mean anomaly: 342.2485 deg

Mean motion: 13.45660827 rev/day

Mean motion (dot): 0.00000001 rev/day2

B* drag term: 0.000067004727 1/REarth

Two-line elements (TLE)

Creation date: Dec. 14, 2025, 3:07 a.m.

Reference frame: TEME

Reference center: EARTH

Epoch: Dec. 13, 2025, 4:43 p.m. UTC

TLE line 0: 0 YAOGAN 9C

TLE line 1: 1 36415U 10009C 25347.69698796 .00000001 00000-0 67005-4 0 9993

TLE line 2: 2 36415 63.3670 118.2740 0523211 19.8048 342.2485 13.45660827774944

Live tracking on map

Real-time ground track for satellite YAOGAN 9C.

In-orbit conjunctions

There are no conjunctions computed for YAOGAN 9C, at the moment. Check back to stay up to date, as we update our databases every day.

Go to all conjunctions

Associated space launch

YAOGAN 9C was lifted into orbit during the mission ‘Long March 4C | Yaogan-9’, on board a Long March 4C space rocket.

The launch took place on March 5, 2010, 4:55 a.m. from Launch Area 94 (SLS-2 / 603).

For more information about the launch, click the button.

Launch to space Long March 4C | Yaogan-9
Long March 4C | Yaogan-9

Agency: N/A

Status: Launch Successful

Launch date: March 5, 2010, 4:55 a.m. UTC

Rocket: Long March 4C

Launch pad: Launch Area 94 (SLS-2 / 603)

Location: Jiuquan Satellite Launch Center, People's Republic of China

...

Latest news about this satellite

There are no fresh news available about this satellite. Check back as we update our databases every day.


Newsletter sign-up

Weekly statistics, charts and insights to help you stay on top of the space industry.